Location: Castelnau-Barbarens
(43.5760°N, 0.7244°E)
Time: 15:44:19
(UTC+02:00)

ISS - Visible Passes

Search period start: 20 May 2019 00:00
Search period end: 30 May 2019 00:00
Orbit: 407 x 410 km, 51.6° (Epoch: 20 May)

Date Brightness Start Highest point End Pass type
(mag) Time Alt. Az. Time Alt. Az. Time Alt. Az.
20 May -1.0 01:14:33 10° NW 01:17:05 20° N 01:19:37 10° NE visible
20 May -1.7 02:51:29 10° NW 02:54:24 28° NNE 02:57:19 10° ENE visible
20 May -3.9 04:27:55 10° WNW 04:31:12 67° SW 04:34:28 10° SE visible
20 May -3.2 22:45:39 10° WSW 22:48:54 59° NNW 22:52:11 10° NE visible
21 May -1.2 00:23:20 10° WNW 00:25:58 22° N 00:28:37 10° NE visible
21 May -1.3 02:00:36 10° NW 02:03:19 23° NNE 02:04:30 19° NE visible
21 May -1.0 03:37:00 10° NW 03:37:06 11° NW 03:37:06 11° NW visible
21 May -3.9 21:54:42 10° SW 21:57:59 82° SSE 22:01:18 10° ENE visible
21 May -1.4 23:32:02 10° WNW 23:34:51 25° NNW 23:37:41 10° NE visible
22 May -1.1 01:09:38 10° NW 01:12:11 20° N 01:14:14 13° NE visible
22 May -1.2 02:46:08 10° NW 02:46:55 16° NW 02:46:55 16° NW visible
22 May -1.9 22:40:45 10° W 22:43:46 33° NNW 22:46:49 10° NE visible
23 May -1.1 00:18:32 10° NW 00:21:02 20° N 00:23:33 10° NE visible
23 May -1.6 01:55:17 10° NW 01:57:15 25° NNW 01:57:15 25° NNW visible
23 May -1.1 23:27:18 10° WNW 23:29:52 20° N 23:32:27 10° NE visible
24 May -1.6 01:04:24 10° NW 01:07:13 25° NNE 01:07:45 24° NNE visible
24 May -1.3 22:36:00 10° WNW 22:38:43 23° NNW 22:41:27 10° NE visible
25 May -1.3 00:13:27 10° NW 00:16:04 21° N 00:18:18 12° ENE visible
25 May -1.3 01:49:52 10° NW 01:51:01 19° NW 01:51:01 19° NW visible
25 May -1.2 23:22:22 10° NW 23:24:53 20° N 23:27:24 10° NE visible
26 May -2.2 00:58:59 10° NW 01:01:36 35° N 01:01:36 35° N visible
26 May -1.2 22:31:09 10° NW 22:33:41 20° N 22:36:12 10° NE visible
27 May -1.9 00:08:04 10° NW 00:10:59 28° NNE 00:12:14 21° NE visible
27 May -1.0 01:44:29 10° WNW 01:44:57 13° WNW 01:44:57 13° WNW visible
27 May -1.5 23:17:07 10° NW 23:19:50 23° NNE 23:22:32 10° ENE visible
28 May -2.3 00:53:30 10° NW 00:55:36 35° NW 00:55:36 35° NW visible
28 May -1.4 22:26:03 10° NW 22:28:37 20° N 22:31:10 10° ENE visible
29 May -3.0 00:02:34 10° NW 00:05:46 45° NNE 00:06:15 41° NE visible
29 May -2.2 23:11:37 10° NW 23:14:39 32° NNE 23:16:57 15° E visible
